[[{"header":{"parameterUnit":"m.s-1","parameterCategory":1,"la1":30.2991,"la2":30.254,"lo1":-89.0895,"lo2":-89.0444,"dy":0.0017,"dx":0.0017,"nx":28,"ny":28,"refTime":"2025-12-02T03:00:00:Z","depth":0,"parameterNumber":2,"parameterNumberName":"U-component_of_WINDS"},"data":[0,0,0,0,0,0,0,0,0,0,0,0,0,0,0,0,0,0,0,0,0,0,0,0,0,0,0,0,0,0,0,0,0,0,0,0,0,0,0,0,0,0,0,0,0,0,0,0,0,0,0,0,0,0,0,0,0,0,-1.4342,-1.4342,0,-1.4273,-1.4272,-1.4271,-1.418,-1.4178,-1.4177,-1.4175,-1.4105,-1.4105,-1.4105,0,0,0,0,0,0,0,0,0,0,0,0,0,-1.4398,-1.4398,-1.4342,-1.4342,-1.4341,-1.4273,-1.4272,-1.4271,-1.418,-1.4178,-1.4176,-1.4175,-1.4106,-1.4105,-1.4105,0,0,0,0,0,0,0,0,0,0,0,0,0,-1.4356,-1.4398,-1.4343,-1.4287,-1.4281,-1.4273,-1.4272,-1.4271,-1.418,-1.4178,-1.4176,-1.4174,-1.4106,-1.4105,-1.4104,-1.4145,0,0,-1.4102,-1.4102,0,0,0,0,0,0,0,0,-1.4359,-1.4354,-1.4296,-1.4291,-1.4285,-1.4233,-1.4266,-1.4229,-1.4181,-1.4219,-1.4175,-1.4173,-1.415,-1.4145,-1.4137,-1.4142,-1.4139,-1.4102,-1.4102,-1.4102,-1.4101,0,0,0,0,0,0,0,-1.4362,-1.4357,-1.4315,-1.4295,-1.4288,-1.4266,-1.4258,-1.4259,-1.4198,-1.4215,-1.4209,-1.4202,-1.4146,-1.4138,-1.4135,-1.4138,-1.4102,-1.4102,-1.4101,-1.4101,-1.4174,-1.4176,0,0,0,0,0,0,-1.4373,-1.436,-1.4317,-1.4313,-1.4317,-1.4267,-1.4258,-1.4252,-1.4198,-1.4187,-1.4204,-1.4198,-1.414,-1.4136,-1.4132,-1.4177,-1.4102,-1.4101,-1.4101,-1.4172,-1.4175,-1.4177,0,0,0,0,0,0,-1.4374,-1.437,-1.432,-1.4334,-1.4326,-1.4269,-1.4263,-1.4251,-1.4243,-1.4189,-1.4177,-1.4206,-1.4138,-1.4133,-1.4143,-1.4173,-1.4101,-1.41,-1.4169,-1.4173,-1.4176,-1.4267,0,0,0,0,0,0,-1.4376,-1.4371,-1.4385,-1.4335,-1.4326,-1.4332,-1.4264,-1.4252,-1.4242,-1.4234,-1.4188,-1.4179,-1.4136,-1.4144,-1.4142,-1.4171,-1.4099,-1.4166,-1.4171,-1.4175,-1.4261,-1.4273,-1.4284,0,0,0,0,0,-1.4379,-1.4414,-1.4386,-1.4382,-1.4343,-1.4333,-1.4328,-1.4278,-1.4245,-1.4259,-1.4224,-1.418,-1.417,-1.4146,-1.4143,-1.4172,-1.4164,-1.4169,-1.4175,-1.4256,-1.4271,-1.4284,0,0,0,0,0,0,-1.4469,-1.4406,-1.4375,-1.4395,-1.437,-1.4318,-1.4334,-1.4295,-1.428,-1.4273,-1.4212,-1.4202,-1.422,-1.4197,-1.4171,-1.4209,-1.4161,-1.4166,-1.4224,-1.4237,-1.4249,-1.4254,-1.4099,0,0,0,0,0,-1.4491,-1.4488,-1.4434,-1.4457,-1.4446,-1.4393,-1.4387,-1.4351,-1.4323,-1.4312,-1.4277,-1.4252,-1.4244,-1.4239,-1.4228,-1.4257,-1.4247,-1.4276,-1.4287,-1.4297,-1.4302,-1.4317,-1.4329,-1.4195,-1.4195,-1.4195,0,0,-1.4537,-1.4502,-1.4504,-1.4474,-1.445,-1.445,-1.4384,-1.4386,-1.4385,-1.4312,-1.4319,-1.4294,-1.4262,-1.4282,-1.4289,-1.4263,-1.4337,-1.4304,-1.4312,-1.4311,-1.4324,-1.4336,-1.4348,-1.4198,-1.4198,-1.4197,0,0,-1.462,-1.4593,-1.461,-1.4588,-1.4553,-1.4518,-1.4522,-1.4476,-1.4456,-1.4462,-1.4408,-1.4406,-1.4392,-1.4372,-1.436,-1.4437,-1.4396,-1.4435,-1.4495,-1.451,-1.452,-1.453,-1.4558,-1.4569,-1.4441,-1.4441,-1.4441,0,-1.4682,-1.4678,-1.4623,-1.4629,-1.4618,-1.4551,-1.4568,-1.455,-1.4514,-1.4508,-1.4479,-1.4461,-1.4435,-1.445,-1.4469,-1.4461,-1.4465,-1.444,-1.4523,-1.4532,-1.454,-1.4566,-1.4577,-1.4446,-1.4445,-1.4445,-1.4444,0,-1.4755,-1.4754,-1.4771,-1.4738,-1.4729,-1.474,-1.4688,-1.4686,-1.4651,-1.4619,-1.4627,-1.4593,-1.4575,-1.4576,-1.4542,-1.4586,-1.4572,-1.4534,-1.4484,-1.4558,-1.4582,-1.4592,-1.4453,-1.4451,-1.445,-1.4448,0,0,-1.4893,-1.483,-1.4837,-1.4822,-1.4779,-1.4777,-1.4786,-1.4768,-1.4767,-1.4745,-1.4751,-1.4742,-1.4707,-1.4694,-1.4657,-1.467,-1.4735,-1.4631,-1.4629,-1.4652,-1.4783,-1.4812,-1.4825,-1.4707,-1.4709,-1.471,-1.4786,0,-1.4968,-1.4979,-1.4931,-1.4955,-1.4953,-1.4891,-1.4899,-1.4874,-1.4845,-1.484,-1.4807,-1.4802,-1.4756,-1.4748,-1.4758,-1.4725,-1.4761,-1.4719,-1.4714,-1.4714,-1.4724,-1.4837,-1.4867,-1.494,-1.4795,-1.4797,-1.4798,0,-1.5057,-1.504,-1.5064,-1.5021,-1.5018,-1.5026,-1.5006,-1.5002,-1.4973,-1.4951,-1.4937,-1.4894,-1.4901,-1.4853,-1.4862,-1.4835,-1.483,-1.4814,-1.4815,-1.4813,-1.4761,-1.4838,-1.4962,-1.4973,-1.4812,-1.4811,-1.481,0,-1.5156,-1.5138,-1.515,-1.5139,-1.5089,-1.5097,-1.5076,-1.5045,-1.5038,-1.5021,-1.5015,-1.4999,-1.4991,-1.498,-1.4935,-1.4904,-1.495,-1.4898,-1.4932,-1.4934,-1.4944,-1.4944,-1.507,-1.4941,-1.4941,-1.4941,-1.4941,0,-1.5245,-1.5262,-1.5194,-1.5202,-1.5219,-1.5165,-1.5184,-1.5158,-1.5131,-1.5133,-1.5079,-1.5082,-1.5022,-1.5019,-1.4984,-1.4997,-1.4993,-1.4976,-1.4967,-1.4981,-1.4984,-1.4977,-1.4971,-1.4944,-1.4943,-1.4942,-1.4942,0,-1.5358,-1.5313,-1.5322,-1.5275,-1.5263,-1.5279,-1.5238,-1.5244,-1.5211,-1.5215,-1.5212,-1.5162,-1.5156,-1.511,-1.5093,-1.5069,-1.5096,-1.5076,-1.5106,-1.51,-1.5137,-1.5134,-1.5262,-1.5277,-1.5139,-1.5141,-1.5142,0,-1.5418,-1.543,-1.5384,-1.5381,-1.5364,-1.536,-1.5352,-1.5299,-1.5294,-1.5263,-1.5272,-1.5261,-1.525,-1.5243,-1.5205,-1.5193,-1.5173,-1.5218,-1.517,-1.5185,-1.5174,-1.5174,-1.5175,-1.5229,-1.5231,-1.5232,-1.5233,0,-1.553,-1.5507,-1.5498,-1.5481,-1.5474,-1.5458,-1.5439,-1.544,-1.5382,-1.5379,-1.5371,-1.5363,-1.5346,-1.5336,-1.5317,-1.5297,-1.5256,-1.5249,-1.5256,-1.5271,-1.5288,-1.528,-1.5134,-1.5246,-1.5245,-1.5244,-1.5243,-1.5243,-1.5618,-1.5626,-1.5596,-1.5587,-1.5568,-1.5552,-1.5555,-1.5523,-1.5516,-1.5498,-1.5468,-1.5465,-1.5437,-1.5408,-1.5391,-1.5389,-1.5365,-1.5375,-1.5378,-1.5382,-1.539,-1.5288,-1.5385,-1.5385,-1.5384,-1.5384,-1.5384,0,-1.5728,-1.5705,-1.5698,-1.5674,-1.5668,-1.5629,-1.5607,-1.5604,-1.5603,-1.558,-1.557,-1.5563,-1.5554,-1.5516,-1.5503,-1.5508,-1.5489,-1.5507,-1.5506,-1.5502,-1.5411,-1.5407,-1.5522,-1.5522,-1.5522,-1.5522,-1.5522,-1.5522,-1.5784,-1.5796,-1.577,-1.5772,-1.5749,-1.5746,-1.5737,-1.5722,-1.5704,-1.5698,-1.569,-1.5665,-1.5636,-1.5621,-1.5611,-1.5601,-1.5599,-1.5623,-1.5606,-1.5522,-1.5508,-1.5496,-1.5491,-1.5622,-1.5623,-1.5696,-1.5697,-1.5698]},{"header":{"parameterUnit":"m.s-1","parameterCategory":1,"la1":30.2991,"la2":30.254,"lo1":-89.0895,"lo2":-89.0444,"dy":0.0017,"dx":0.0017,"nx":28,"ny":28,"refTime":"2025-12-02T03:00:00:Z","depth":0,"parameterNumber":3,"parameterNumberName":"V-component_of_WINDS"},"data":[0,0,0,0,0,0,0,0,0,0,0,0,0,0,0,0,0,0,0,0,0,0,0,0,0,0,0,0,0,0,0,0,0,0,0,0,0,0,0,0,0,0,0,0,0,0,0,0,0,0,0,0,0,0,0,0,0,0,0.4038,0.4037,0,0.4011,0.401,0.401,0.4026,0.4027,0.4028,0.4028,0.3998,0.3996,0.3995,0,0,0,0,0,0,0,0,0,0,0,0,0,0.4101,0.41,0.4038,0.4037,0.4037,0.4011,0.401,0.401,0.4026,0.4027,0.4028,0.4029,0.3998,0.3997,0.3995,0,0,0,0,0,0,0,0,0,0,0,0,0,0.4074,0.41,0.4038,0.4042,0.4042,0.4011,0.401,0.401,0.4026,0.4027,0.4028,0.4029,0.3999,0.3997,0.3994,0.3957,0,0,0.3987,0.3986,0,0,0,0,0,0,0,0,0.4075,0.4072,0.4042,0.4042,0.4042,0.4023,0.4022,0.3992,0.4025,0.4032,0.4028,0.403,0.4005,0.4002,0.3995,0.3956,0.3954,0.3987,0.3986,0.3985,0.3984,0,0,0,0,0,0,0,0.4077,0.4073,0.4027,0.4041,0.4041,0.4045,0.4042,0.4016,0.4012,0.4031,0.4032,0.4029,0.4005,0.3997,0.3994,0.3954,0.3987,0.3985,0.3984,0.3983,0.3883,0.3882,0,0,0,0,0,0,0.4079,0.4074,0.4028,0.4026,0.4062,0.4042,0.404,0.4028,0.4012,0.4011,0.4028,0.403,0.4,0.3997,0.3993,0.3948,0.3985,0.3983,0.3981,0.3884,0.3883,0.3881,0,0,0,0,0,0,0.4081,0.4075,0.4029,0.4051,0.4045,0.404,0.4027,0.4027,0.4018,0.401,0.4009,0.402,0.4001,0.3996,0.3966,0.3947,0.3982,0.398,0.3886,0.3884,0.3882,0.3858,0,0,0,0,0,0,0.4082,0.4075,0.4061,0.405,0.4044,0.4003,0.4026,0.4025,0.4014,0.4017,0.4003,0.4001,0.4002,0.3969,0.3964,0.3945,0.3978,0.3887,0.3885,0.3883,0.386,0.3855,0.3851,0,0,0,0,0,0.4085,0.4055,0.406,0.4055,0.4026,0.4002,0.3998,0.4,0.4013,0.3998,0.3994,0.4002,0.3951,0.3966,0.396,0.394,0.3889,0.3886,0.3883,0.3862,0.3856,0.3851,0,0,0,0,0,0,0.4063,0.4053,0.4059,0.4025,0.4014,0.4004,0.3986,0.3993,0.3977,0.398,0.3982,0.3978,0.3947,0.3941,0.3958,0.3903,0.3922,0.3917,0.3908,0.3902,0.3898,0.3899,0.3976,0,0,0,0,0,0.4054,0.4036,0.4028,0.3999,0.3993,0.3991,0.398,0.3983,0.3971,0.3966,0.3959,0.3946,0.3927,0.3915,0.3897,0.386,0.3857,0.3843,0.3839,0.3835,0.3831,0.3811,0.3804,0.3872,0.3872,0.3872,0,0,0.4035,0.4028,0.4016,0.3994,0.3986,0.3966,0.3987,0.3965,0.395,0.3962,0.3933,0.3928,0.3914,0.388,0.3865,0.3874,0.3812,0.3831,0.3828,0.3826,0.3807,0.3801,0.3795,0.387,0.387,0.3871,0,0,0.3992,0.3985,0.396,0.3951,0.3939,0.3938,0.3932,0.3921,0.3918,0.389,0.3899,0.3881,0.3849,0.3839,0.3829,0.3783,0.379,0.3778,0.3753,0.3734,0.3728,0.3723,0.3707,0.37,0.3774,0.3774,0.3774,0,0.397,0.3941,0.3945,0.3923,0.3913,0.3925,0.3899,0.3891,0.3873,0.3866,0.3876,0.3837,0.3828,0.3792,0.3781,0.3774,0.3766,0.3778,0.3729,0.3724,0.372,0.3704,0.3697,0.3772,0.3772,0.3773,0.3773,0,0.3915,0.3895,0.3876,0.386,0.3848,0.3824,0.3824,0.3812,0.3816,0.3813,0.3784,0.3775,0.3756,0.3748,0.3751,0.3712,0.3718,0.3729,0.3747,0.3712,0.3697,0.369,0.377,0.3771,0.3771,0.3771,0,0,0.3854,0.3842,0.3835,0.3828,0.3816,0.38,0.3777,0.376,0.3749,0.3736,0.3716,0.369,0.37,0.3689,0.3692,0.3675,0.3639,0.3687,0.3687,0.3678,0.3595,0.3586,0.3579,0.3644,0.3643,0.3642,0.3596,0,0.3809,0.377,0.3773,0.3735,0.3717,0.3729,0.3709,0.3699,0.3696,0.368,0.3677,0.3658,0.3673,0.3667,0.3651,0.3646,0.3622,0.365,0.3624,0.3623,0.3626,0.3571,0.3562,0.3519,0.359,0.3589,0.3589,0,0.3751,0.3738,0.3698,0.369,0.3682,0.3664,0.3648,0.3633,0.3622,0.3622,0.3611,0.3616,0.3593,0.3613,0.358,0.3599,0.3589,0.3586,0.3584,0.358,0.3603,0.3565,0.3506,0.3499,0.3579,0.358,0.3581,0,0.371,0.3682,0.3655,0.3649,0.3639,0.3626,0.3621,0.3611,0.3601,0.3587,0.358,0.3564,0.3554,0.3541,0.3542,0.3557,0.3508,0.3529,0.3507,0.3506,0.3494,0.3495,0.3431,0.349,0.349,0.349,0.349,0,0.3658,0.3633,0.3637,0.362,0.3592,0.3597,0.357,0.3566,0.3558,0.3541,0.355,0.3533,0.3536,0.3519,0.352,0.3492,0.3488,0.3486,0.3486,0.3485,0.3485,0.3477,0.3479,0.3489,0.3489,0.3489,0.349,0,0.3607,0.3609,0.358,0.3573,0.3571,0.3551,0.3545,0.3529,0.3528,0.3505,0.35,0.3499,0.3479,0.348,0.3457,0.3457,0.3423,0.3428,0.3427,0.3427,0.3405,0.3407,0.3333,0.3323,0.3389,0.3389,0.3388,0,0.3573,0.3555,0.3547,0.3536,0.353,0.3513,0.3503,0.3507,0.3496,0.3483,0.3468,0.345,0.3436,0.3404,0.34,0.3383,0.3386,0.3362,0.3384,0.3383,0.3385,0.3386,0.3384,0.3357,0.3356,0.3356,0.3355,0,0.3513,0.3515,0.35,0.3486,0.3474,0.3462,0.3452,0.3442,0.3446,0.3433,0.3414,0.3402,0.3381,0.3362,0.3346,0.334,0.3348,0.3349,0.3342,0.334,0.334,0.3339,0.3414,0.335,0.335,0.3351,0.3351,0.3351,0.3469,0.3453,0.3445,0.3428,0.3422,0.3412,0.3397,0.3395,0.3379,0.3362,0.3366,0.3344,0.3335,0.3314,0.3307,0.329,0.3299,0.329,0.3287,0.3285,0.3282,0.3344,0.3287,0.3287,0.3287,0.3288,0.3288,0,0.3409,0.3405,0.3389,0.3375,0.3362,0.3372,0.3362,0.335,0.3331,0.3322,0.3308,0.3286,0.3269,0.3264,0.3248,0.3235,0.3238,0.323,0.323,0.3229,0.3275,0.3282,0.3228,0.3228,0.3228,0.3228,0.3228,0.3228,0.3376,0.3349,0.3351,0.3321,0.3317,0.3297,0.329,0.3281,0.3274,0.3249,0.3235,0.3233,0.3226,0.3209,0.3193,0.3192,0.3185,0.3176,0.3176,0.3219,0.3225,0.3231,0.3237,0.3174,0.3174,0.3131,0.313,0.313]}]]